Startseite
Über Mich
AHP4
Galerie
Sehschlangen
Tourenbuch
Bookmarks
Elektronik
Bewertung
Geschichten
[Tagesmessung] [Jahreswerte] [Information]

Messwerte vom 13.04.2022

Die letzten Messwerte von 23:58:46 Uhr:
KategorieMesswert
Temperatur [°C]12
Luftdruck [mBar]1002
Sonneneinstrahlung0
Wind [km/h]0 aus Süd
Niederschlag [l/m²]0
rel.Luftfeucht.82.4%
CO2 [ppm]711

Diagramme
Messwerte vom 13.04.2022
Tagesaggregation
KategorieMinimumMaximumSchnittSumme
Temperatur [°C]72815.1375
Luftdruck [mBar]9981002999.4688
Sonneneinstrahlung245121.8125
Wind [km/h]10
rF [%]30.282.456.39
Niederschlag [l/m²]0
CO2 [ppm]457930704.5
Einordnung alsVegetationstag
Sommertag

Messungen an benachbarten Tagen: Zur Jahresaggregation 2022
Tabelle aller Messwerte
UhrzeitTemperatur [°C]Luftdruck [mBar]SonneWind [km/h]RichtungRegen [l/m²]rF [%]CO2 [ppm]
00:01:47 10 998 0 1 NO 0 54.4 575
00:04:46 10 998 0 1 NO 0 54.4 586
00:07:47 10 998 0 3 N 0 54.4 584
00:10:46 10 998 0 3 O 0 54 575
00:13:45 10 998 0 1 SW 0 54.1 575
00:16:46 10 998 0 1 N 0 54 578
00:19:48 10 998 0 4 SO 0 53.4 577
00:22:46 10 998 0 5 O 0 53.4 560
00:25:46 10 998 0 4 S 0 53.6 548
00:28:47 10 998 0 3 NO 0 53.6 551
00:31:45 10 998 0 2 O 0 54 560
00:34:47 10 998 0 1 S 0 54.7 577
00:37:48 9 998 0 0 SO 0 55 582
00:40:44 9 998 0 0 O 0 55.6 587
00:43:47 9 998 0 1 NO 0 56.2 582
00:46:45 9 998 0 2 S 0 57.4 574
00:49:47 9 998 0 1 S 0 58.9 577
00:52:45 9 998 0 1 O 0 59.3 586
00:55:44 9 998 0 0 O 0 59.4 578
00:58:46 9 998 0 1 S 0 58.9 584
01:01:48 9 998 0 2 NO 0 58.8 577
01:04:48 9 998 0 0 O 0 59.8 582
01:07:49 9 998 0 2 SO 0 60.1 589
01:10:46 9 998 0 1 0 60.3 596
01:13:46 9 998 0 2 S 0 60.4 589
01:16:47 9 998 0 0 NW 0 60.2 589
01:19:47 9 999 0 0 NO 0 60.5 590
01:22:48 9 998 0 2 SO 0 60.5 606
01:25:47 9 998 0 0 SO 0 60.1 597
01:28:47 9 998 0 1 O 0 60 589
01:31:50 9 998 0 0 O 0 60.1 586
01:34:49 9 999 0 3 O 0 60.6 590
01:37:50 9 998 0 2 SO 0 60.7 586
01:40:46 9 998 0 1 O 0 60.6 589
01:43:50 9 998 0 0 NO 0 60.6 586
01:46:47 9 998 0 0 NW 0 60.4 575
01:49:48 9 998 0 2 NO 0 60.4 568
01:52:47 9 998 0 0 SO 0 60.6 568
01:55:47 9 998 0 2 S 0 60.8 582
01:58:47 9 998 0 1 SW 0 61 582
02:01:48 9 998 0 2 SO 0 61.1 575
02:04:45 9 998 0 2 O 0 61.3 571
02:07:48 9 998 0 2 S 0 61.5 583
02:10:47 9 999 0 3 NO 0 61.7 589
02:13:44 9 998 0 1 S 0 62 597
02:16:46 9 998 0 2 N 0 62.1 595
02:19:47 9 998 0 2 SW 0 62.3 591
02:22:45 9 998 0 0 N 0 62.1 591
02:25:46 9 998 0 0 O 0 62.1 588
02:28:48 9 998 0 2 O 0 62.3 597
02:31:45 9 998 0 1 O 0 62.4 593
02:34:47 9 998 0 0 NO 0 62.5 594
02:37:48 9 998 0 0 O 0 63 593
02:40:48 9 998 0 2 O 0 63.6 597
02:43:47 8 998 0 2 O 0 64.2 589
02:46:45 8 998 0 2 O 0 64.6 581
02:49:47 8 998 0 0 N 0 65 586
02:52:46 8 998 0 2 O 0 65.3 592
02:55:48 8 998 0 2 N 0 65.5 593
02:58:47 8 998 0 2 0 65.3 588
03:01:47 8 998 0 2 NO 0 65.5 601
03:04:49 8 998 0 3 SO 0 65.6 604
03:07:48 8 998 0 3 SO 0 65.6 597
03:10:48 8 998 0 0 NO 0 66.2 601
03:13:46 8 998 0 2 NO 0 66.3 607
03:16:49 8 998 0 2 NW 0 66.1 609
03:19:46 8 998 0 0 N 0 66.3 607
03:22:46 8 998 0 2 SO 0 66.3 607
03:25:45 8 998 0 3 N 0 66.6 604
03:28:46 8 998 0 1 NO 0 66.7 615
03:31:45 8 998 0 2 O 0 67.1 618
03:34:48 8 998 0 0 SO 0 67 627
03:37:49 8 998 0 1 NW 0 67 627
03:40:46 8 998 0 2 N 0 67.2 624
03:43:47 8 998 0 1 NO 0 67.8 616
03:46:47 8 998 0 2 O 0 67.7 609
03:49:47 8 998 0 1 O 0 67.8 622
03:52:46 8 998 0 0 NO 0 67.9 630
03:55:47 8 998 0 4 S 0 68.2 625
03:58:49 8 998 0 0 SO 0 68.6 624
04:01:46 8 998 0 1 O 0 68.6 639
04:04:48 7 998 0 1 O 0 68.5 651
04:07:46 7 998 0 0 N 0 68.3 651
04:10:46 7 998 0 0 O 0 69 644
04:13:47 7 998 0 0 O 0 69.6 639
04:16:45 7 998 0 0 O 0 69.5 635
04:19:47 7 998 0 0 O 0 69.5 638
04:22:46 7 998 0 0 O 0 69.2 647
04:25:46 7 998 0 0 N 0 69.5 642
04:28:47 7 998 0 0 NO 0 70 641
04:31:46 7 998 0 0 O 0 70.2 639
04:34:45 7 998 0 0 NO 0 70.4 641
04:37:47 7 998 0 0 NO 0 70.7 650
04:40:46 7 998 0 0 O 0 71 651
04:43:46 7 998 0 0 O 0 71.3 649
04:46:44 7 998 0 0 O 0 71.8 644
04:49:46 7 998 0 0 O 0 71.8 644
04:52:44 7 998 0 0 N 0 72.1 651
04:55:48 7 998 0 0 NW 0 72.4 639
04:58:48 7 998 0 1 NO 0 72.1 644
05:01:49 7 998 0 0 NO 0 71.5 640
05:04:46 7 998 0 2 O 0 71.5 639
05:07:43 7 998 0 1 O 0 71.5 635
05:10:49 7 998 0 1 SO 0 71.3 635
05:13:45 7 998 0 0 N 0 71.3 639
05:16:46 7 998 0 2 SO 0 71.2 641
05:19:46 7 998 0 1 O 0 71.2 633
05:22:47 7 998 0 2 O 0 71.2 633
05:25:46 7 998 0 4 SO 0 71.4 639
05:28:44 7 998 0 1 NO 0 71.5 647
05:31:44 7 998 0 0 N 0 71.4 648
05:34:46 7 998 0 0 N 0 71.4 640
05:37:46 7 998 0 1 SO 0 71.3 645
05:40:44 7 998 0 0 O 0 71.3 651
05:43:45 7 998 0 0 S 0 71.4 647
05:46:48 7 998 0 2 NW 0 71.5 642
05:49:47 7 998 0 2 O 0 72 642
05:52:46 7 998 0 3 SO 0 72.6 633
05:55:47 7 998 0 0 O 0 72.2 640
05:58:47 7 998 0 1 O 0 72.3 637
06:01:48 7 998 4 0 NO 0 72.5 642
06:04:46 7 998 6 0 O 0 72.5 641
06:07:46 7 998 9 0 SO 0 72.4 647
06:10:49 7 998 14 0 SO 0 72.4 642
06:13:48 7 998 21 0 NO 0 72.1 638
06:16:46 7 998 30 0 NO 0 72.1 635
06:19:47 7 998 40 0 O 0 72.6 639
06:22:47 7 998 50 0 S 0 72.5 650
06:25:47 7 998 60 0 SO 0 72.6 655
06:28:47 7 998 70 0 O 0 73.1 647
06:31:45 7 998 80 1 O 0 73.1 641
06:34:46 7 998 89 0 O 0 72.8 639
06:37:45 7 998 99 0 N 0 72.7 635
06:40:47 7 998 107 1 NO 0 72.8 637
06:43:46 7 998 116 1 NO 0 72.6 634
06:46:48 7 998 123 1 0 72.7 630
06:49:50 7 998 130 0 NO 0 72.6 635
06:52:48 7 999 136 0 NO 0 72.5 635
06:55:48 7 998 142 0 O 0 72.6 622
06:58:49 7 998 147 0 SO 0 72.8 626
07:01:48 7 998 151 0 SO 0 73.4 633
07:04:48 7 998 155 0 N 0 73.5 639
07:07:46 7 998 159 0 O 0 73.5 638
07:10:48 7 998 162 0 SO 0 73.6 638
07:13:46 7 998 165 0 NW 0 73.4 635
07:16:49 7 998 168 0 NW 0 73.1 624
07:19:46 7 998 170 0 SO 0 72.9 623
07:22:46 7 998 171 0 NO 0 72.9 618
07:25:46 7 999 174 0 O 0 73.1 616
07:28:47 7 998 175 0 SO 0 72.7 633
07:31:47 7 998 178 0 SO 0 72.6 663
07:34:47 7 998 180 2 NO 0 72.5 665
07:37:47 8 998 182 0 SO 0 72.7 653
07:40:48 8 998 184 0 S 0 72.7 654
07:43:45 8 999 186 1 O 0 72.9 659
07:46:50 8 998 188 0 NW 0 73.1 669
07:49:47 8 998 189 0 N 0 73 676
07:52:48 8 999 191 0 N 0 72.6 675
07:55:48 8 998 192 0 SO 0 72.1 688
07:58:48 8 999 193 1 O 0 72 695
08:01:48 8 998 194 0 SO 0 72.1 697
08:04:47 9 998 194 0 S 0 71.7 703
08:07:49 9 998 195 0 NO 0 71.2 709
08:10:47 9 999 194 0 O 0 70.8 713
08:13:48 9 998 194 0 NO 0 70.8 704
08:16:46 9 999 194 0 NO 0 70.3 696
08:19:48 10 999 194 1 O 0 69.9 693
08:22:50 10 998 194 1 NO 0 68.9 700
08:25:46 10 999 194 0 O 0 67.7 705
08:28:46 10 999 195 0 O 0 67.4 697
08:31:49 10 999 195 0 SO 0 66.9 701
08:34:48 10 999 195 2 SO 0 66.6 700
08:37:51 10 999 196 0 SO 0 66.6 694
08:40:47 10 998 196 0 NO 0 66.4 703
08:43:50 10 999 197 0 NO 0 66.2 700
08:46:49 10 998 197 1 O 0 66 709
08:49:48 10 998 198 2 SO 0 66 706
08:52:49 10 998 199 1 O 0 65.8 705
08:55:48 11 999 201 0 NO 0 65.8 700
08:58:50 11 999 202 0 NO 0 65.9 707
09:01:49 11 999 204 0 NO 0 65.8 715
09:04:50 11 999 205 0 O 0 65.8 718
09:07:49 11 999 207 1 O 0 66 715
09:10:50 11 999 209 0 O 0 65.5 715
09:13:50 11 998 210 0 SO 0 64.6 711
09:16:49 11 999 211 0 SO 0 64.1 705
09:19:51 11 1000 212 0 SO 0 63.4 706
09:22:47 12 999 214 1 O 0 63.5 706
09:25:49 12 999 215 0 O 0 64.7 671
09:28:50 12 999 216 0 SO 0 64.7 648
09:31:50 12 999 218 1 O 0 63.9 662
09:34:47 12 999 218 1 O 0 63.7 687
09:37:50 13 999 219 0 SO 0 60.9 697
09:40:50 13 999 219 0 NO 0 60.9 702
09:43:46 13 999 219 1 0 61.2 697
09:46:46 13 999 220 1 S 0 60.7 702
09:49:52 14 999 219 1 NO 0 60.1 701
09:52:48 14 999 220 2 N 0 56.6 711
09:55:48 15 999 219 0 S 0 56.6 703
09:58:48 15 1000 219 4 SO 0 57.3 706
10:01:48 15 999 219 2 O 0 57.6 709
10:04:50 16 999 219 3 S 0 57.3 709
10:07:50 16 1000 218 2 SO 0 56.5 707
10:10:48 16 999 218 3 O 0 55.5 708
10:13:47 16 999 218 3 O 0 55.2 714
10:16:48 16 999 218 0 NO 0 54.6 720
10:19:48 16 999 218 0 S 0 54.6 723
10:22:48 16 999 219 2 SO 0 54.3 726
10:25:48 16 999 220 3 SO 0 54.9 731
10:28:48 17 999 222 1 SO 0 55.1 733
10:31:48 17 999 222 0 SO 0 54.7 735
10:34:46 17 1000 222 1 O 0 54 744
10:37:47 17 999 221 2 SO 0 52.5 756
10:40:48 17 999 220 3 N 0 50.2 768
10:43:48 17 999 218 2 O 0 50.1 765
10:46:47 17 1000 217 0 SO 0 51.5 761
10:49:48 17 999 216 0 NW 0 51.8 764
10:52:48 17 1000 215 1 NW 0 50.8 767
10:55:47 18 999 215 2 SO 0 51.1 760
10:58:47 18 1000 215 0 SO 0 51.7 762
11:01:48 18 1001 215 1 SO 0 51.4 764
11:04:46 18 999 215 5 SO 0 50.9 764
11:07:48 18 1000 215 0 S 0 51.6 769
11:10:48 18 999 217 0 SO 0 50.6 764
11:13:52 18 999 218 0 SO 0 50.7 765
11:16:47 18 999 217 3 SO 0 50.5 768
11:19:47 18 1001 218 0 O 0 49.9 777
11:22:48 18 1000 219 3 SW 0 48.7 778
11:25:49 18 1000 219 3 SO 0 48.9 779
11:28:49 18 1000 219 1 0 46.8 805
11:31:47 18 1000 219 2 SO 0 46.4 814
11:34:49 18 1000 219 0 O 0 47.6 815
11:37:51 19 1000 206 0 NW 0 48.1 668
11:40:48 19 1001 205 0 SO 0 47.9 483
11:43:32 17 1000 217 3 SW 0 40 457
11:46:48 20 1000 217 6 W 0 45.4 633
11:49:47 20 1000 217 0 O 0 46.6 705
11:52:48 20 999 218 0 SO 0 46.1 719
11:55:48 20 1000 218 4 NW 0 44 726
11:58:51 20 1000 218 2 S 0 45 738
12:01:47 20 999 219 3 N 0 42.9 743
12:04:49 20 1000 219 3 SO 0 42.5 737
12:07:50 20 999 219 1 SO 0 42.2 740
12:10:49 21 1000 220 0 O 0 41.8 741
12:13:47 21 1000 220 2 S 0 41.7 741
12:16:48 21 1000 220 1 W 0 40.8 744
12:19:47 21 1000 220 7 W 0 40.4 744
12:22:32 20 1000 221 4 W 0 40 754
12:25:47 22 1000 221 5 O 0 40.3 754
12:28:50 22 1000 222 1 O 0 40.9 765
12:31:47 23 1000 222 2 W 0 41.5 764
12:34:47 23 1000 223 1 N 0 39.1 765
12:37:49 22 1001 223 6 W 0 37.2 762
12:40:48 22 1000 207 7 N 0 36.6 764
12:43:48 22 1000 208 9 W 0 36.3 715
12:46:50 22 1001 209 6 W 0 37.9 615
12:49:48 23 1000 208 1 SW 0 37.3 579
12:52:49 23 1000 209 5 NW 0 36.4 556
12:55:50 23 1000 209 0 W 0 35.9 548
12:58:51 24 999 210 0 SW 0 36 524
13:01:49 23 1000 227 4 N 0 34 571
13:04:47 24 999 227 3 W 0 33.3 656
13:07:49 24 1000 227 1 W 0 34.7 670
13:10:48 24 1000 228 7 W 0 34 661
13:13:48 23 999 228 3 NW 0 33.3 658
13:16:50 23 1000 228 9 NW 0 33.5 668
13:19:47 23 1000 229 3 W 0 33.9 677
13:22:32 22 1000 229 3 W 0 40 685
13:25:50 23 999 229 6 N 0 34.3 690
13:28:49 23 1000 229 9 NW 0 34.2 692
13:31:51 23 1000 230 0 NO 0 35.2 698
13:34:49 23 999 230 0 S 0 35.6 700
13:37:47 23 999 231 3 S 0 36 715
13:40:47 25 1000 231 1 SO 0 36.6 715
13:43:49 26 1001 231 3 W 0 34 718
13:46:50 26 1000 232 2 W 0 30.8 722
13:49:49 26 1000 232 1 SO 0 30.5 727
13:52:48 26 1000 233 0 W 0 31.8 726
13:55:49 26 1000 233 0 O 0 31.8 732
13:58:47 25 1000 233 4 NW 0 31.3 740
14:01:47 24 1001 234 5 S 0 35 770
14:04:47 25 1000 234 0 S 0 35.8 774
14:07:49 26 1001 235 3 NW 0 35.6 776
14:10:49 26 1000 235 5 S 0 33.7 782
14:13:49 26 1000 235 1 W 0 32.3 785
14:16:46 26 999 235 1 S 0 31.8 784
14:19:48 25 1000 236 4 NW 0 31.1 783
14:22:47 26 1000 236 0 S 0 32.6 782
14:25:50 26 1000 237 3 SW 0 32.1 789
14:28:49 26 999 237 1 SO 0 32.1 800
14:31:49 26 1000 238 4 S 0 32.3 808
14:34:49 26 1000 239 2 S 0 31.8 808
14:37:50 26 999 240 5 SO 0 32.1 797
14:40:49 26 1002 240 6 SO 0 31.8 797
14:43:47 26 999 241 3 SO 0 30.7 805
14:46:48 26 999 241 3 S 0 31.9 820
14:49:48 27 999 242 6 S 0 32.1 832
14:52:48 27 999 242 10 W 0 30.9 847
14:55:50 26 1000 242 2 NW 0 30.2 844
14:58:48 26 1000 242 1 W 0 31.2 846
15:01:51 26 1000 242 1 SW 0 31.8 841
15:04:49 27 1000 242 6 NW 0 31.5 843
15:07:50 27 1000 242 4 W 0 31.7 847
15:10:50 27 999 243 0 SW 0 32.5 848
15:13:50 27 1000 243 2 S 0 31.7 858
15:16:49 27 999 243 0 W 0 31.3 860
15:19:47 26 1001 244 3 N 0 30.7 867
15:22:50 25 1000 244 4 NO 0 32.2 873
15:25:49 25 1000 243 2 SO 0 32.6 875
15:28:50 25 999 243 3 NW 0 32.4 876
15:31:49 25 999 244 1 O 0 32.3 885
15:34:48 26 1000 244 7 SO 0 33.3 891
15:37:48 26 999 243 2 S 0 34.2 895
15:40:47 27 1000 243 7 S 0 31.8 894
15:43:49 27 1001 239 0 S 0 30.8 893
15:46:49 27 999 241 5 S 0 31 898
15:49:49 26 1000 241 4 W 0 31.2 905
15:52:46 26 999 242 2 N 0 31.6 907
15:55:49 25 999 243 6 W 0 32.4 896
15:58:47 26 1000 244 4 O 0 34 897
16:01:51 27 1001 244 3 SW 0 34.4 902
16:04:47 27 999 243 3 S 0 32.4 902
16:07:47 28 999 242 4 S 0 31.8 899
16:10:50 27 1000 242 2 SO 0 32.3 897
16:13:48 27 1000 242 0 O 0 32.4 930
16:16:47 26 1000 242 4 SO 0 32.1 908
16:19:49 26 1000 241 2 SO 0 33.3 893
16:22:49 26 1000 240 1 NW 0 34.3 886
16:25:49 26 1000 242 1 NW 0 33.6 882
16:28:49 26 1001 242 1 S 0 33.9 886
16:31:50 26 1000 241 2 SO 0 34.3 872
16:34:48 26 1000 239 1 W 0 33.3 867
16:37:49 26 1000 240 0 O 0 32.8 870
16:40:50 26 999 240 0 SW 0 32.9 866
16:43:50 26 1000 241 0 SW 0 32.7 867
16:46:48 26 1000 241 1 NO 0 32.7 865
16:49:51 25 1000 241 3 NW 0 32.3 864
16:52:49 24 1000 242 6 NW 0 33.5 875
16:55:48 24 999 241 2 NW 0 34.4 868
16:58:46 24 1000 243 3 W 0 34.6 875
17:01:50 24 1000 244 3 NW 0 35.2 873
17:04:47 25 1000 244 0 N 0 34.7 877
17:07:49 25 1000 245 0 O 0 34.8 885
17:10:48 25 1000 244 3 SO 0 33.2 895
17:13:52 26 1001 243 0 SO 0 34.1 894
17:16:49 26 1000 243 0 SO 0 33.8 893
17:19:49 26 1000 243 3 SO 0 35.3 898
17:22:49 26 1000 243 3 NW 0 35 895
17:25:48 26 1000 243 3 SO 0 33.9 894
17:28:49 26 1001 241 5 SO 0 34.6 889
17:31:49 26 999 237 0 SO 0 34.5 887
17:34:47 25 1001 238 0 SO 0 34 888
17:37:52 25 999 238 2 SO 0 34.6 886
17:40:50 25 999 235 0 SO 0 34.9 880
17:43:48 24 1000 233 0 NO 0 35.3 873
17:46:49 24 1000 238 0 N 0 36 871
17:49:46 24 1000 240 0 O 0 36.9 873
17:52:48 24 1000 238 2 SO 0 37 875
17:55:49 24 1001 241 0 NW 0 37.3 862
17:58:48 24 1000 242 1 O 0 37 856
18:01:48 25 1000 244 0 O 0 36.6 863
18:04:48 25 1000 244 2 N 0 36 865
18:07:49 25 1000 243 2 NO 0 34.7 861
18:10:48 25 1000 242 0 N 0 37.3 854
18:13:47 24 1000 241 2 O 0 38.3 856
18:16:51 24 1000 239 0 SO 0 38.3 853
18:19:48 24 1000 233 0 O 0 38.5 849
18:22:49 23 1000 231 0 NO 0 38.8 848
18:25:49 23 1000 231 1 SO 0 39.8 852
18:28:50 22 1000 237 0 SO 0 40.4 842
18:31:52 22 1001 232 0 NW 0 42.3 836
18:34:51 22 1000 233 1 NW 0 42.9 840
18:37:49 22 1000 228 0 NO 0 43.5 835
18:40:51 22 999 224 0 NW 0 44.3 837
18:43:48 21 999 221 0 N 0 44.9 827
18:46:49 21 1000 218 0 N 0 45.4 829
18:49:49 21 1000 214 0 SO 0 45.7 823
18:52:50 21 1002 208 1 S 0 45.8 825
18:55:51 21 1000 203 2 SO 0 46 830
18:58:49 20 1001 199 0 SO 0 46.3 821
19:01:50 20 1000 194 0 SO 0 46.9 817
19:04:52 20 1001 189 1 SO 0 47.3 812
19:07:51 20 1001 186 0 SO 0 47.8 814
19:10:51 19 1000 185 0 SO 0 48.4 815
19:13:51 19 1000 184 1 O 0 49.6 812
19:16:50 19 1001 183 0 SO 0 49.7 805
19:19:48 19 1000 180 0 SO 0 49.9 811
19:22:47 19 1000 178 0 N 0 50.8 817
19:25:47 18 1001 176 0 N 0 51.2 824
19:28:48 18 1000 175 0 N 0 51.6 811
19:31:48 18 1001 174 0 N 0 51.8 805
19:34:51 18 1000 172 0 SO 0 51.8 802
19:37:48 18 1000 168 0 O 0 51.9 788
19:40:48 18 1000 163 0 O 0 51.9 787
19:43:47 18 1001 157 0 O 0 51.9 782
19:46:47 17 1000 149 0 O 0 52.1 780
19:49:48 17 1001 140 0 O 0 55.1 782
19:52:46 17 1000 129 0 O 0 55.8 780
19:55:48 17 1000 118 0 O 0 57.5 777
19:58:47 17 1000 108 0 O 0 58.6 776
20:01:46 17 1001 97 0 O 0 58.9 779
20:04:49 16 1001 86 0 O 0 59.1 775
20:07:50 16 1000 75 0 O 0 58.9 771
20:10:48 16 1000 63 0 O 0 59.3 764
20:13:45 16 1001 53 0 O 0 59.6 761
20:16:30 15 1001 43 0 O 0 51.9 750
20:19:45 16 1001 34 0 O 0 63.1 749
20:22:46 16 1001 25 0 O 0 64.5 750
20:25:50 16 1001 18 0 O 0 64.4 752
20:28:46 15 1001 12 0 O 0 63.8 743
20:31:46 15 1001 8 0 O 0 63.5 741
20:34:46 15 1001 5 0 O 0 63.5 740
20:37:46 15 1001 3 0 O 0 64.7 744
20:40:47 14 1002 0 0 O 0 65.2 742
20:43:46 14 1002 0 0 O 0 65.9 741
20:46:44 14 1001 0 0 O 0 66.4 735
20:49:45 14 1002 0 0 O 0 66.7 738
20:52:47 14 1001 0 0 O 0 66.8 736
20:55:45 14 1001 0 0 O 0 67.1 732
20:58:46 14 1001 0 0 O 0 67.5 733
21:01:46 14 1002 0 0 O 0 67.4 738
21:04:47 14 1002 0 0 O 0 67.9 738
21:07:47 14 1001 0 0 O 0 68.1 733
21:10:47 14 1002 0 0 O 0 68 724
21:13:49 14 1002 0 0 O 0 68.5 724
21:16:50 14 1001 0 0 O 0 68.8 720
21:19:48 14 1002 0 0 O 0 70.8 716
21:22:47 14 1001 0 0 O 0 70.9 689
21:25:45 14 1002 0 0 O 0 71 615
21:28:46 13 1002 0 0 O 0 70.4 565
21:31:46 13 1001 0 0 O 0 70.5 553
21:34:46 13 1002 0 0 O 0 71 540
21:37:45 13 1001 0 0 O 0 71.2 532
21:40:48 13 1001 0 0 O 0 71.1 534
21:43:48 13 1002 0 0 O 0 71.2 542
21:46:47 13 1002 0 0 O 0 71.3 542
21:49:47 13 1002 0 0 O 0 71.7 542
21:52:47 13 1001 0 0 O 0 72.1 554
21:55:46 13 1002 0 0 O 0 72.6 553
21:58:45 13 1001 0 0 O 0 73 556
22:01:50 12 1002 0 0 O 0 74 562
22:04:47 12 1001 0 0 O 0 74.2 562
22:07:47 12 1001 0 0 O 0 74.3 565
22:10:48 12 1002 0 0 O 0 74.4 565
22:13:48 12 1002 0 0 O 0 74.7 569
22:16:48 12 1002 0 0 O 0 74.8 568
22:19:46 12 1002 0 0 O 0 74.6 574
22:22:47 12 1002 0 0 O 0 75.6 575
22:25:47 12 1002 0 0 O 0 77 580
22:28:47 12 1002 0 0 O 0 76.2 594
22:31:49 12 1002 0 0 O 0 76 601
22:34:46 12 1002 0 0 O 0 76.2 601
22:37:46 12 1002 0 0 O 0 76.5 607
22:40:47 12 1002 0 0 O 0 76.9 613
22:43:47 12 1002 0 4 W 0 77.6 615
22:46:46 12 1002 0 1 W 0 79.7 619
22:49:49 12 1002 0 0 W 0 80 615
22:52:47 12 1002 0 0 S 0 79.4 615
22:55:47 12 1002 0 0 S 0 79.1 616
22:58:47 12 1002 0 0 S 0 78.6 625
23:01:47 12 1002 0 0 S 0 78.5 633
23:04:47 12 1002 0 0 S 0 78.8 631
23:07:46 12 1002 0 0 S 0 79 638
23:10:47 12 1002 0 0 S 0 79.4 647
23:13:47 12 1002 0 0 S 0 79 643
23:16:47 12 1001 0 0 S 0 79.4 639
23:19:49 12 1002 0 0 NW 0 80.1 642
23:22:47 12 1001 0 0 NW 0 80.1 642
23:25:47 12 1002 0 0 SO 0 79.1 648
23:28:48 12 1002 0 0 SO 0 78.7 651
23:31:47 12 1002 0 0 SO 0 79 657
23:34:48 12 1002 0 0 SO 0 78.7 665
23:37:47 12 1002 0 0 SO 0 79 671
23:40:49 12 1002 0 0 SO 0 78.7 688
23:43:48 12 1002 0 0 SO 0 78.5 700
23:46:49 12 1001 0 0 SO 0 78.4 698
23:49:50 12 1002 0 0 SO 0 79.5 705
23:52:48 12 1002 0 1 S 0 80.6 706
23:55:47 12 1002 0 1 SW 0 81.5 708
23:58:46 12 1002 0 0 S 0 82.4 711

Letzte Änderung : 22-Jul-2022
Copyright Jens Köhler, Wolfsburg, Obere Dorfstraße 10d